When you browse on this site, cookies collect data to enhance your experience and personalize the content and advertising you see.
Visit our Privacy Policy to learn more. By continuing to use the site, you agree to this use of cookies and data.
  • In France
  • List of Countries
  • For 7 days
  • Water Temperature
  • Satellite Maps
  • Weather Map
  • Weather Widgets
  • user-avatar
    Login

    Hourly Weather Biskira

    Today, 17 November, Saturday

    Time Temperature Precipitation Wind Pressure Humidity
    00:00 +20°C° 0 mm 1 mps 751 mmHg 55%
    01:00 +20°C° 0 mm 1 mps 751 mmHg 56%
    02:00 +20°C° 0 mm 1 mps 751 mmHg 58%
    03:00 +20°C° 0 mm 1 mps 750 mmHg 59%
    04:00 +19°C° 0.2 mm 1 mps 750 mmHg 62%
    05:00 +19°C° 0.2 mm 1 mps 750 mmHg 66%
    06:00 +18°C° 0 mm 1 mps 750 mmHg 70%
    07:00 +19°C° 0.4 mm 1 mps 750 mmHg 68%
    08:00 +20°C° 0.4 mm 1 mps 750 mmHg 66%
    09:00 +19°C° 0.4 mm 2 mps 750 mmHg 64%
    10:00 +19°C° 0.6 mm 2 mps 750 mmHg 63%
    11:00 +20°C° 0.6 mm 2 mps 749 mmHg 62%
    12:00 +20°C° 0.6 mm 2 mps 749 mmHg 61%
    13:00 +20°C° 0.3 mm 2 mps 749 mmHg 62%
    14:00 +20°C° 0.3 mm 2 mps 748 mmHg 63%
    15:00 +20°C° 0.3 mm 2 mps 748 mmHg 63%
    16:00 +19°C° 0.1 mm 2 mps 748 mmHg 67%
    17:00 +19°C° 0.1 mm 2 mps 748 mmHg 71%
    18:00 +19°C° 0.1 mm 1 mps 749 mmHg 74%
    19:00 +19°C° 0 mm 1 mps 749 mmHg 76%
    20:00 +18°C° 0 mm 1 mps 749 mmHg 77%
    21:00 +18°C° 0 mm 1 mps 749 mmHg 79%
    22:00 +18°C° 0 mm 1 mps 749 mmHg 79%
    23:00 +16°C° 0 mm 1 mps 749 mmHg 80%

    Tomorrow, 18 November, Sunday

    Time Temperature Precipitation Wind Pressure Humidity
    00:00 +16°C° 0 mm 1 mps 748 mmHg 80%
    01:00 +16°C° 0 mm 1 mps 748 mmHg 80%
    02:00 +15°C° 0 mm 0 mps 748 mmHg 80%
    03:00 +14°C° 0 mm 0 mps 748 mmHg 81%
    04:00 +15°C° 0 mm 1 mps 748 mmHg 81%
    05:00 +15°C° 0 mm 1 mps 748 mmHg 82%
    06:00 +15°C° 0 mm 1 mps 748 mmHg 82%
    07:00 +16°C° 0 mm 1 mps 749 mmHg 77%
    08:00 +18°C° 0 mm 1 mps 749 mmHg 71%
    09:00 +18°C° 0 mm 2 mps 749 mmHg 66%
    10:00 +19°C° 0 mm 2 mps 749 mmHg 62%
    11:00 +20°C° 0 mm 3 mps 748 mmHg 59%
    12:00 +21°C° 0 mm 4 mps 748 mmHg 55%
    13:00 +21°C° 0 mm 4 mps 748 mmHg 55%
    14:00 +21°C° 0 mm 4 mps 747 mmHg 54%
    15:00 +21°C° 0 mm 4 mps 747 mmHg 53%
    16:00 +20°C° 0 mm 4 mps 747 mmHg 56%
    17:00 +20°C° 0 mm 4 mps 747 mmHg 59%
    18:00 +19°C° 0 mm 4 mps 747 mmHg 62%
    19:00 +19°C° 0 mm 5 mps 747 mmHg 62%
    20:00 +17°C° 0 mm 5 mps 747 mmHg 62%
    21:00 +17°C° 0 mm 5 mps 747 mmHg 63%
    22:00 +17°C° 0 mm 5 mps 747 mmHg 63%
    23:00 +17°C° 0 mm 5 mps 747 mmHg 64%

    Day after tomorrow, 19 November, Monday

    Time Temperature Precipitation Wind Pressure Humidity
    00:00 +17°C° 0 mm 5 mps 747 mmHg 64%
    01:00 +16°C° 0 mm 5 mps 746 mmHg 65%
    02:00 +17°C° 0 mm 4 mps 746 mmHg 66%
    03:00 +17°C° 0 mm 4 mps 745 mmHg 66%
    04:00 +17°C° 0.1 mm 4 mps 745 mmHg 67%
    05:00 +17°C° 0.1 mm 4 mps 745 mmHg 67%
    06:00 +17°C° 0.1 mm 4 mps 745 mmHg 68%
    07:00 +16°C° 0 mm 5 mps 744 mmHg 65%
    08:00 +16°C° 0 mm 5 mps 744 mmHg 63%
    09:00 +17°C° 0 mm 6 mps 744 mmHg 60%
    10:00 +17°C° 0 mm 6 mps 743 mmHg 57%
    11:00 +18°C° 0 mm 7 mps 743 mmHg 54%
    12:00 +20°C° 0 mm 7 mps 742 mmHg 51%
    13:00 +18°C° 0.2 mm 7 mps 741 mmHg 54%
    14:00 +18°C° 0.2 mm 7 mps 741 mmHg 57%
    15:00 +19°C° 0.2 mm 6 mps 741 mmHg 60%
    16:00 +17°C° 0.2 mm 5 mps 741 mmHg 62%
    17:00 +18°C° 0.2 mm 4 mps 741 mmHg 64%
    18:00 +18°C° 0.2 mm 3 mps 741 mmHg 66%
    19:00 +17°C° 0.5 mm 3 mps 742 mmHg 67%
    20:00 +17°C° 0.5 mm 2 mps 742 mmHg 68%
    21:00 +17°C° 0.5 mm 2 mps 742 mmHg 69%
    22:00 +16°C° 0.1 mm 2 mps 743 mmHg 67%
    23:00 +16°C° 0.1 mm 2 mps 743 mmHg 65%

    20 November, Tuesday

    Time Temperature Precipitation Wind Pressure Humidity
    00:00 +16°C° 0.1 mm 3 mps 743 mmHg 63%
    01:00 +14°C° 0 mm 3 mps 743 mmHg 63%
    02:00 +14°C° 0 mm 3 mps 743 mmHg 62%
    03:00 +14°C° 0 mm 3 mps 743 mmHg 62%
    04:00 +13°C° 0 mm 3 mps 743 mmHg 62%
    05:00 +13°C° 0 mm 3 mps 743 mmHg 62%
    06:00 +13°C° 0 mm 3 mps 744 mmHg 63%
    07:00 +14°C° 0 mm 3 mps 744 mmHg 59%
    08:00 +15°C° 0 mm 4 mps 745 mmHg 56%
    09:00 +17°C° 0 mm 4 mps 746 mmHg 53%
    10:00 +18°C° 0 mm 4 mps 746 mmHg 52%
    11:00 +19°C° 0 mm 4 mps 746 mmHg 50%
    12:00 +20°C° 0 mm 4 mps 746 mmHg 49%
    13:00 +20°C° 0 mm 3 mps 746 mmHg 47%
    14:00 +20°C° 0 mm 3 mps 746 mmHg 46%
    15:00 +21°C° 0 mm 3 mps 747 mmHg 45%
    16:00 +20°C° 0 mm 3 mps 747 mmHg 48%
    17:00 +19°C° 0 mm 2 mps 748 mmHg 50%
    18:00 +19°C° 0 mm 2 mps 748 mmHg 53%
    19:00 +18°C° 0 mm 2 mps 749 mmHg 54%
    20:00 +18°C° 0 mm 2 mps 749 mmHg 55%
    21:00 +17°C° 0 mm 2 mps 750 mmHg 56%
    22:00 +17°C° 0 mm 2 mps 750 mmHg 57%
    23:00 +16°C° 0 mm 2 mps 750 mmHg 58%

    21 November, Wednesday

    Time Temperature Precipitation Wind Pressure Humidity
    00:00 +16°C° 0 mm 2 mps 750 mmHg 59%
    01:00 +16°C° 0 mm 2 mps 750 mmHg 60%
    02:00 +15°C° 0 mm 2 mps 750 mmHg 60%
    03:00 +15°C° 0 mm 2 mps 750 mmHg 61%
    04:00 +15°C° 0 mm 2 mps 750 mmHg 60%
    05:00 +15°C° 0 mm 2 mps 751 mmHg 60%
    06:00 +14°C° 0 mm 1 mps 751 mmHg 59%
    07:00 +16°C° 0 mm 1 mps 752 mmHg 54%
    08:00 +18°C° 0 mm 1 mps 752 mmHg 49%
    09:00 +19°C° 0 mm 1 mps 753 mmHg 44%
    10:00 +20°C° 0 mm 1 mps 752 mmHg 42%
    11:00 +20°C° 0 mm 2 mps 752 mmHg 40%
    12:00 +20°C° 0 mm 2 mps 752 mmHg 39%
    13:00 +21°C° 0 mm 2 mps 752 mmHg 39%
    14:00 +21°C° 0 mm 2 mps 752 mmHg 38%
    15:00 +21°C° 0 mm 3 mps 752 mmHg 38%
    16:00 +20°C° 0 mm 3 mps 752 mmHg 41%
    17:00 +19°C° 0 mm 3 mps 753 mmHg 44%
    18:00 +19°C° 0 mm 3 mps 753 mmHg 46%
    19:00 +18°C° 0 mm 3 mps 754 mmHg 47%
    20:00 +18°C° 0 mm 3 mps 754 mmHg 47%
    21:00 +17°C° 0 mm 3 mps 754 mmHg 48%
    22:00 +17°C° 0 mm 3 mps 754 mmHg 48%
    23:00 +17°C° 0 mm 3 mps 754 mmHg 48%

    22 November, Thursday

    Time Temperature Precipitation Wind Pressure Humidity
    00:00 +17°C° 0 mm 3 mps 754 mmHg 48%
    01:00 +16°C° 0 mm 3 mps 754 mmHg 48%
    02:00 +16°C° 0 mm 3 mps 754 mmHg 48%
    03:00 +16°C° 0 mm 3 mps 754 mmHg 48%
    04:00 +16°C° 0 mm 3 mps 755 mmHg 47%
    05:00 +16°C° 0 mm 2 mps 755 mmHg 47%
    06:00 +16°C° 0 mm 2 mps 755 mmHg 47%
    07:00 +17°C° 0 mm 3 mps 755 mmHg 43%
    08:00 +18°C° 0 mm 3 mps 756 mmHg 39%
    09:00 +19°C° 0 mm 3 mps 756 mmHg 36%
    10:00 +20°C° 0 mm 3 mps 755 mmHg 34%
    11:00 +21°C° 0 mm 4 mps 755 mmHg 32%
    12:00 +22°C° 0 mm 4 mps 755 mmHg 30%
    13:00 +22°C° 0 mm 4 mps 755 mmHg 29%
    14:00 +22°C° 0 mm 4 mps 754 mmHg 29%
    15:00 +22°C° 0 mm 4 mps 754 mmHg 29%
    16:00 +21°C° 0 mm 4 mps 754 mmHg 32%
    17:00 +20°C° 0 mm 3 mps 755 mmHg 35%
    18:00 +19°C° 0 mm 3 mps 755 mmHg 38%
    19:00 +18°C° 0 mm 3 mps 755 mmHg 39%
    20:00 +18°C° 0 mm 3 mps 756 mmHg 39%
    21:00 +18°C° 0 mm 3 mps 756 mmHg 40%
    22:00 +17°C° 0 mm 2 mps 756 mmHg 40%
    23:00 +17°C° 0 mm 2 mps 756 mmHg 41%
    Show more